Home   Weather   Lautoka   Past weeks

Flag for Fiji Past Weather in Lautoka, Fiji — Yesterday and Last 2 Weeks

Now
84 °F

Passing clouds.


Feels Like: 87 °F
Forecast: 76 / 83 °F
Wind: 14 mph from West

Location: Nandi

Current Time: Sep 26, 2016 at 12:23:44 PM

Latest Report: Sep 26, 2016 at 12:00 PM


Visibility: N/A

Pressure: 29.89 "Hg

Humidity: 58%

Dew Point: 68 °F

Location of LautokaLocation

Past Weather in Lautoka — Graph

°F

Lautoka Temperature Yesterday

Maximum temperature yesterday: 84 °F (at 11:00 AM)
Minimum temperature yesterday: 68 °F (at 4:00 AM)
Average temperature yesterday: 77 °F

High & Low Weather Summary for the Past Weeks

 TemperatureHumidityPressure
High88 °F (Sep 15, 1:00 PM)100% (Sep 26, 6:00 AM)30.07 "Hg (Sep 26, 6:00 AM)
Low63 °F (Sep 17, 5:00 AM)45% (Sep 16, 11:00 AM)29.80 "Hg (Sep 22, 3:00 PM)
Average75 °F72%29.94 "Hg
* Reported Sep 11 11:00 AM — Sep 26 11:00 AM, Lautoka, Weather by CustomWeather, © 2016

Note: Actual official high and low records may vary slightly from our data, if they occured in-between our weather recording intervals... More about our weather records

Advertising

Lautoka Weather History for the Previous 24 Hours

Scroll right to see more
 ConditionsComfort  
Time TempWeatherWind HumidityBarometerVisibility
11:00 AM
Mon, Sep 26
82 °FPassing clouds.10 mph58%29.89 "HgN/A
10:00 AM82 °FPassing clouds.9 mph55%29.92 "HgN/A
9:00 AM81 °FPassing clouds.No wind66%29.92 "HgN/A
8:00 AM75 °FSunny.5 mph78%29.92 "Hg10 mi
7:00 AM68 °FSunny.6 mph94%29.92 "Hg10 mi
6:00 AM66 °FPassing clouds.6 mph100%29.89 "HgN/A
5:00 AM68 °FPassing clouds.6 mph94%29.89 "HgN/A
4:00 AM68 °FPassing clouds.7 mph94%29.89 "HgN/A
3:00 AM70 °FPassing clouds.7 mph88%29.86 "HgN/A
2:00 AM70 °FPassing clouds.5 mph94%29.89 "HgN/A
1:00 AM72 °FPassing clouds.3 mph88%29.89 "HgN/A
12:00 AM72 °FPassing clouds.5 mph88%29.89 "HgN/A
11:00 PM
Sun, Sep 25
73 °FPassing clouds.3 mph89%29.92 "HgN/A
10:00 PM73 °FPassing clouds.7 mph89%29.92 "HgN/A
9:00 PM75 °FPassing clouds.5 mph89%29.89 "HgN/A
8:00 PM75 °FPassing clouds.5 mph89%29.89 "HgN/A
7:00 PM77 °FPassing clouds.5 mph79%29.86 "HgN/A
6:00 PM79 °FPassing clouds.8 mph74%29.83 "HgN/A
5:00 PM82 °FPassing clouds.12 mph66%29.83 "HgN/A
4:00 PM82 °FPassing clouds.13 mph66%29.80 "HgN/A
3:00 PM84 °FPassing clouds.15 mph62%29.80 "HgN/A
2:00 PM84 °FPassing clouds.14 mph58%29.83 "HgN/A
1:00 PM84 °FPassing clouds.15 mph55%29.86 "HgN/A
12:00 PM84 °FPassing clouds.15 mph55%29.86 "HgN/A
Weather by CustomWeather, © 2016

See weather overviewHow to use our weather pages